COSMOS 1275 DEB, 17624

Orbit data source: Space-Track

COSMOS 1275 DEB, 17624 is space debris in LEO originally from a launch on Thu, 04 Jun 1981 UTC launched from the Plesetsk Missile And Space Complex (PKMTR). Debris objects in space refer to the collection of defunct objects orbiting the Earth. Examples of debris include non-operational satellites, rocket bodies, and fragments generated from explosions, collisions, or faulty payload assembly.

Loading next visibility...
Identifier
17624, 1981-053KT
Orbit
LEO
Country
Flag of CISCIS
Related business
Manufacturer
Unknown
Mission
Spacecraft
Bus & Motor
Unknown
Mass
Unknown
Launch date (UTC)
1981-06-04 (45 years ago)
Launch vehicle
Unknown
Launch site
Plesetsk Missile And Space Complex (PKMTR)
Object type
Payload
Rocket body
Debris
Shape & HBR
Unknown shape, 0.1 m
Radar Cross Section
Small (<0.1 m²)

Expand to show TLE details & history
Last TLE update: 3 days ago

TLE from 3 days ago
0 COSMOS 1275 DEB
1 17624U 81053KT  26092.12660672  .00005020  00000-0  13347-2 0  9993
2 17624  82.8399 140.1540 0012763  70.3391 319.0602 14.48403839112973
Epoch: 2026-04-02T03:02Z
TLE epoch observation values (Epoch: 2026-04-02T03:02:18.820Z)
Latitude
29.10084°
Longitude
-91.91595°
Altitude
727.697 km
Speed
7.498 km/s
True Right ascension
09h 36m 34s
True Declination
28° 57' 16"
Sunlit
Object was in full shadow at epoch
Visualization orbit readout
Latitude
Unknown
Longitude
Unknown
Altitude
Unknown
Speed
Unknown
Apparent Right ascension
Unknown
Apparent Declination
Unknown
Sunlit
N/A
Visualization observer readout
Local Sidereal Time
22:03:04
Azimuth
Unknown
Elevation
Unknown
Doppler factor
Unknown
Orbital elements
Apogee altitude
736.988 km
Perigee altitude
718.849 km
Semi-major axis
7,106.056 km
Eccentricity
0.00128
Inclination
82.8399°
RAAN
140.154°
Arg. of periapsis
70.3391°
True anomaly
318.96425°
Mean anomaly
319.0602°
Eccentric anomaly
319.01224°
Mean motion
3.62327 °/min
Orbital period
99.36 mins
BSTAR
0.0013347
Loading maneuver chart data...
Computing Atmospheric mass density...
Loading historical data...
Loading historical data...
Loading historical data...
Loading historical data...
Loading historical data...
Loading historical data...
Loading historical data...

Documentation

Showing up to 5 results
|